Location: Jaworzyna Śląska
(50.9128°N, 16.4318°E)
Time: 05:19:47
(UTC+01:00)

ISS - Pass Details

Date: 26 January 2019
Orbit: 403 x 411 km, 51.6° (Epoch: 23 February)

Event Time Altitude Azimuth Distance (km) Brightness Sun altitude
Rises 17:34:58 0° 217° (SW) 2,324 1.0 -9.5°
Reaches altitude 10° 17:37:15 10° 203° (SSW) 1,469 -0.4 -9.9°
Maximum altitude 17:40:01 25° 146° (SE) 875 -2.3 -10.3°
Enters shadow 17:42:04 14° 97° (E) 1,244 -1.9 -10.6°
